60P/Tsuchinshan 2 (2025)

Japanese version
Home page
Updated on January 10, 2025

---------------------------------------------------------------------

* Profile

* Orbital Elements

Epoch 2025 July 24.0 TT = JDT 2460880.5                                         
T 2025 July 20.60384 TT                                 Rudenko                 
q   1.6457025            (2000.0)            P               Q                  
n   0.14861557     Peri.  216.91053     -0.56247475     -0.82445831             
a   3.5298792      Node   267.39775     +0.77272314     -0.49734050             
e   0.5337794      Incl.    3.57985     +0.29414471     -0.27003875             
P   6.63                                                                        
From 1552 observations 1971 Sept. 19-2019 June 23, mean residual 0".8.          
     Nongravitational parameters A1 = -0.03, A2 = +0.0005.                      

* Finding Charts

* Magnitudes Graph

        m1 = 8.3 + 5 log d + 25 log r(t - 35)

---------------------------------------------------------------------

The orbital elements are published on M.P.E.C. 2021-F20.
The charts are made with StellaNavigator Ver.11 (AstroArts).
The magnitudes graphs are made with Comet for Windows.

---------------------------------------------------------------------

Copyright(C) Seiichi Yoshida (comet@aerith.net). All rights reserved.